Location: Newark
(55.7083°N, 13.1992°E)
Time: 00:32:48
(UTC+00:00)

N. Korean satellite - Pass Details

Date: 28 January 2020
Orbit: 456 x 505 km, 97.2° (Epoch: 24 February)

Event Time Altitude Azimuth Distance (km) Brightness Sun altitude
Rises 04:23:06 0° 21° (NNE) 2,544 10.5 -23.0°
Reaches altitude 10° 04:25:22 10° 34° (NE) 1,668 9.7 -22.7°
Maximum altitude 04:28:30 28° 95° (E) 954 8.7 -22.3°
Drops below altitude 10° 04:31:38 10° 155° (SSE) 1,680 9.6 -21.8°
Sets 04:33:56 0° 168° (SSE) 2,566 10.4 -21.5°
